Спринг-Валли

США     32°52′35″N   116°50′52″W
темп.,
°C
ветер,
м/с
пор.,
м/с
влажн.,
%
обл.,
%
осадки,
мм/ч
давл.,
гПа
погр.,
м
19 апреля, пн
пн1923:00+13в22240 0.0 101711
02:00+13всв33110 0.0 101610
05:00+13всв33100 0.0 101610
08:00+20всв22120 0.0 101779
11:00+25з2390 0.0 10162144
14:00+27з86100 0.0 10152239
17:00+24з56150 0.0 1014974
20:00+14юз11380 0.0 101511
20 апреля, вт
вт2023:00+13вюв22360 0.0 101511
02:00+12юв11350 0.0 101311
05:00+11юв11300 0.0 101211
08:00+17ююз22250 0.0 1013139
11:00+21зюз44260 0.0 1013753
14:00+23зюз66220 0.0 10111008
17:00+19зюз55340 0.0 1011701
20:00+11юз22730 0.0 101217
21 апреля, ср
ср2123:00+8ююв229571 0.0 101315
02:00+8ююз248996 0.0 1013446
05:00+8юз248498 0.0 1012612
08:00+8юз457899 0.0 1014737
11:00+9зюз4577100 0.0 1014828
14:00+11зюз4572100 0.1 1013895
17:00+11зюз4574100 0.1 1012867
20:00+9юз3384100 0.1 1013524
22 апреля, чт
чт2223:00+8юз2391100 0.1 1014389
02:00+8зюз2289100 0.1 1013352
05:00+8юз129097 0.1 1012267
08:00+8юз128898 0.1 1014336
11:00+11зюз227899 0.1 1014788
14:00+12зюз437294 0.0 1013785
17:00+12з337498 0.2 1012795
20:00+10з228298 0.1 1014613
23 апреля, пт
пт2323:00+9зюз119097 0.1 1015273
02:00+9з129095 0.0 1015431
05:00+9с019194 0.0 1015326
08:00+10зсз018330 0.0 1016308
11:00+16зюз32590 0.0 1015607
14:00+19зюз434616 0.0 1014990
17:00+17зюз44514 0.0 1014768
20:00+10зюз22820 0.0 101611